• în Republica Moldova
  • Lista ţărilor
  • Pe 7 zile
  • Temperatura apei
  • Hartă satelitară
  • Meteo pe hartă
  • Widget-uri
  • user-avatar
    Intrare

    Meteo pe oră la Starye Vyselki

    Astăzi, 28 Mai, Luni

    Timp Temperatura Precipitaţii Vânt Presiune Umiditate
    00:00 +12°C° 0 mm 3 m/s 745 mmHg 81%
    01:00 +11°C° 0 mm 3 m/s 745 mmHg 82%
    02:00 +11°C° 0 mm 3 m/s 745 mmHg 84%
    03:00 +11°C° 0 mm 3 m/s 745 mmHg 86%
    04:00 +11°C° 0 mm 3 m/s 746 mmHg 87%
    05:00 +12°C° 0 mm 3 m/s 746 mmHg 88%
    06:00 +12°C° 0 mm 3 m/s 746 mmHg 88%
    07:00 +13°C° 0 mm 3 m/s 747 mmHg 83%
    08:00 +15°C° 0 mm 4 m/s 747 mmHg 77%
    09:00 +17°C° 0 mm 4 m/s 747 mmHg 71%
    10:00 +18°C° 0 mm 4 m/s 748 mmHg 66%
    11:00 +19°C° 0 mm 5 m/s 748 mmHg 60%
    12:00 +19°C° 0 mm 5 m/s 748 mmHg 54%
    13:00 +19°C° 0 mm 5 m/s 748 mmHg 53%
    14:00 +19°C° 0 mm 5 m/s 749 mmHg 51%
    15:00 +19°C° 0 mm 5 m/s 749 mmHg 50%
    16:00 +19°C° 0 mm 4 m/s 749 mmHg 52%
    17:00 +18°C° 0 mm 4 m/s 749 mmHg 55%
    18:00 +18°C° 0 mm 4 m/s 749 mmHg 57%
    19:00 +16°C° 0 mm 3 m/s 749 mmHg 61%
    20:00 +13°C° 0 mm 3 m/s 749 mmHg 64%
    21:00 +11°C° 0 mm 3 m/s 750 mmHg 68%
    22:00 +10°C° 0 mm 3 m/s 750 mmHg 67%
    23:00 +9°C° 0 mm 3 m/s 750 mmHg 67%

    Mâine, 29 Mai, Marţi

    Timp Temperatura Precipitaţii Vânt Presiune Umiditate
    00:00 +8°C° 0 mm 2 m/s 751 mmHg 66%
    01:00 +8°C° 0 mm 2 m/s 751 mmHg 67%
    02:00 +7°C° 0 mm 2 m/s 751 mmHg 67%
    03:00 +7°C° 0 mm 2 m/s 752 mmHg 67%
    04:00 +8°C° 0 mm 1 m/s 752 mmHg 68%
    05:00 +9°C° 0 mm 1 m/s 752 mmHg 69%
    06:00 +9°C° 0 mm 1 m/s 752 mmHg 69%
    07:00 +11°C° 0 mm 1 m/s 752 mmHg 64%
    08:00 +13°C° 0 mm 1 m/s 751 mmHg 59%
    09:00 +15°C° 0 mm 1 m/s 751 mmHg 53%
    10:00 +16°C° 0 mm 1 m/s 751 mmHg 51%
    11:00 +18°C° 0 mm 1 m/s 751 mmHg 48%
    12:00 +19°C° 0 mm 1 m/s 750 mmHg 46%
    13:00 +19°C° 0 mm 2 m/s 750 mmHg 46%
    14:00 +19°C° 0 mm 2 m/s 749 mmHg 46%
    15:00 +20°C° 0 mm 2 m/s 749 mmHg 46%
    16:00 +19°C° 0 mm 2 m/s 748 mmHg 50%
    17:00 +19°C° 0 mm 2 m/s 747 mmHg 54%
    18:00 +19°C° 0 mm 2 m/s 747 mmHg 57%
    19:00 +17°C° 0 mm 2 m/s 746 mmHg 63%
    20:00 +16°C° 0 mm 2 m/s 746 mmHg 68%
    21:00 +14°C° 0 mm 2 m/s 746 mmHg 73%
    22:00 +12°C° 0 mm 3 m/s 745 mmHg 75%
    23:00 +12°C° 0 mm 3 m/s 745 mmHg 77%

    Poimâine, 30 Mai, Miercuri

    Timp Temperatura Precipitaţii Vânt Presiune Umiditate
    00:00 +11°C° 0 mm 3 m/s 745 mmHg 79%
    01:00 +11°C° 0 mm 4 m/s 745 mmHg 81%
    02:00 +11°C° 0 mm 4 m/s 744 mmHg 82%
    03:00 +10°C° 0 mm 4 m/s 744 mmHg 83%
    04:00 +11°C° 0 mm 4 m/s 743 mmHg 82%
    05:00 +12°C° 0 mm 5 m/s 743 mmHg 82%
    06:00 +12°C° 0 mm 5 m/s 742 mmHg 81%
    07:00 +14°C° 0 mm 5 m/s 742 mmHg 79%
    08:00 +16°C° 0 mm 6 m/s 741 mmHg 76%
    09:00 +19°C° 0 mm 6 m/s 741 mmHg 73%
    10:00 +20°C° 0 mm 6 m/s 741 mmHg 70%
    11:00 +22°C° 0 mm 6 m/s 740 mmHg 67%
    12:00 +23°C° 0 mm 7 m/s 740 mmHg 64%
    13:00 +23°C° 0,1 mm 7 m/s 739 mmHg 63%
    14:00 +24°C° 0,1 mm 7 m/s 739 mmHg 62%
    15:00 +24°C° 0,1 mm 7 m/s 738 mmHg 62%
    16:00 +24°C° 0,3 mm 7 m/s 738 mmHg 66%
    17:00 +23°C° 0,3 mm 6 m/s 737 mmHg 70%
    18:00 +22°C° 0,3 mm 6 m/s 737 mmHg 74%
    19:00 +21°C° 0,2 mm 6 m/s 736 mmHg 79%
    20:00 +20°C° 0,2 mm 5 m/s 736 mmHg 83%
    21:00 +19°C° 0,2 mm 5 m/s 736 mmHg 87%
    22:00 +17°C° 0,1 mm 5 m/s 736 mmHg 88%
    23:00 +17°C° 0,1 mm 5 m/s 735 mmHg 90%

    31 Mai, Joi

    Timp Temperatura Precipitaţii Vânt Presiune Umiditate
    00:00 +17°C° 0,1 mm 4 m/s 735 mmHg 92%
    01:00 +17°C° 0 mm 4 m/s 735 mmHg 92%
    02:00 +15°C° 0 mm 4 m/s 734 mmHg 93%
    03:00 +16°C° 0 mm 3 m/s 734 mmHg 93%
    04:00 +15°C° 0,1 mm 4 m/s 734 mmHg 93%
    05:00 +14°C° 0,1 mm 4 m/s 734 mmHg 92%
    06:00 +14°C° 0,1 mm 4 m/s 734 mmHg 92%
    07:00 +14°C° 0,1 mm 4 m/s 734 mmHg 88%
    08:00 +14°C° 0,1 mm 4 m/s 735 mmHg 84%
    09:00 +14°C° 0,1 mm 4 m/s 735 mmHg 80%
    10:00 +15°C° 0 mm 5 m/s 735 mmHg 73%
    11:00 +16°C° 0 mm 5 m/s 735 mmHg 65%
    12:00 +17°C° 0 mm 5 m/s 736 mmHg 58%
    13:00 +17°C° 0 mm 5 m/s 736 mmHg 56%
    14:00 +17°C° 0 mm 5 m/s 736 mmHg 54%
    15:00 +19°C° 0 mm 5 m/s 736 mmHg 52%
    16:00 +17°C° 0 mm 5 m/s 737 mmHg 55%
    17:00 +17°C° 0 mm 5 m/s 737 mmHg 58%
    18:00 +16°C° 0 mm 5 m/s 737 mmHg 60%
    19:00 +14°C° 0 mm 5 m/s 737 mmHg 62%
    20:00 +13°C° 0 mm 5 m/s 738 mmHg 63%
    21:00 +10°C° 0 mm 5 m/s 738 mmHg 64%
    22:00 +9°C° 0 mm 5 m/s 739 mmHg 62%
    23:00 +8°C° 0 mm 5 m/s 739 mmHg 59%

    1 Iunie, Vineri

    Timp Temperatura Precipitaţii Vânt Presiune Umiditate
    00:00 +8°C° 0 mm 5 m/s 740 mmHg 57%
    01:00 +7°C° 0 mm 4 m/s 740 mmHg 60%
    02:00 +6°C° 0 mm 4 m/s 740 mmHg 62%
    03:00 +5°C° 0 mm 4 m/s 740 mmHg 65%
    04:00 +5°C° 0 mm 4 m/s 740 mmHg 67%
    05:00 +5°C° 0 mm 4 m/s 740 mmHg 69%
    06:00 +5°C° 0 mm 4 m/s 741 mmHg 71%
    07:00 +7°C° 0 mm 5 m/s 741 mmHg 65%
    08:00 +8°C° 0 mm 5 m/s 741 mmHg 60%
    09:00 +10°C° 0 mm 5 m/s 742 mmHg 55%
    10:00 +11°C° 0 mm 6 m/s 742 mmHg 54%
    11:00 +11°C° 0 mm 6 m/s 742 mmHg 52%
    12:00 +13°C° 0 mm 6 m/s 742 mmHg 50%
    13:00 +13°C° 0 mm 6 m/s 742 mmHg 50%
    14:00 +13°C° 0 mm 6 m/s 742 mmHg 50%
    15:00 +14°C° 0 mm 6 m/s 742 mmHg 50%
    16:00 +13°C° 0 mm 5 m/s 742 mmHg 53%
    17:00 +13°C° 0 mm 5 m/s 742 mmHg 56%
    18:00 +12°C° 0 mm 5 m/s 742 mmHg 59%
    19:00 +11°C° 0 mm 4 m/s 743 mmHg 61%
    20:00 +10°C° 0 mm 4 m/s 743 mmHg 63%
    21:00 +8°C° 0 mm 4 m/s 743 mmHg 65%
    22:00 +7°C° 0 mm 4 m/s 744 mmHg 65%
    23:00 +6°C° 0 mm 4 m/s 744 mmHg 65%

    2 Iunie, Sâmbătă

    Timp Temperatura Precipitaţii Vânt Presiune Umiditate
    00:00 +5°C° 0 mm 5 m/s 744 mmHg 65%
    01:00 +5°C° 0 mm 4 m/s 744 mmHg 67%
    02:00 +4°C° 0 mm 4 m/s 744 mmHg 68%
    03:00 +4°C° 0 mm 4 m/s 745 mmHg 70%
    04:00 +4°C° 0 mm 4 m/s 745 mmHg 70%
    05:00 +4°C° 0 mm 4 m/s 745 mmHg 70%
    06:00 +4°C° 0 mm 4 m/s 745 mmHg 69%
    07:00 +6°C° 0 mm 5 m/s 745 mmHg 64%
    08:00 +8°C° 0 mm 5 m/s 746 mmHg 60%
    09:00 +10°C° 0 mm 5 m/s 746 mmHg 55%
    10:00 +12°C° 0 mm 5 m/s 746 mmHg 54%
    11:00 +13°C° 0 mm 5 m/s 746 mmHg 52%
    12:00 +14°C° 0 mm 5 m/s 746 mmHg 51%
    13:00 +14°C° 0 mm 5 m/s 745 mmHg 51%
    14:00 +14°C° 0 mm 5 m/s 745 mmHg 51%
    15:00 +15°C° 0 mm 5 m/s 745 mmHg 51%
    16:00 +15°C° 0 mm 4 m/s 744 mmHg 53%
    17:00 +15°C° 0 mm 4 m/s 744 mmHg 55%
    18:00 +16°C° 0 mm 3 m/s 744 mmHg 56%
    19:00 +13°C° 0 mm 3 m/s 744 mmHg 61%
    20:00 +12°C° 0 mm 2 m/s 744 mmHg 66%
    21:00 +10°C° 0 mm 1 m/s 744 mmHg 71%
    22:00 +9°C° 0 mm 1 m/s 744 mmHg 72%
    23:00 +9°C° 0 mm 1 m/s 745 mmHg 74%
    Arată mai mult